Time,TemperatureF,DewpointF,PressureIn,WindDirection,WindDirectionDegrees,WindSpeedMPH,WindSpeedGustMPH,Humidity,HourlyPrecipIn,Conditions,Clouds,dailyrainin,SoftwareType,DateUTC
2013-03-04 00:00:00,28.4,22.1,29.89,WNW,293,3.0,8.0,77,0.00,,OVC041,0.00,VWS V14.01,2013-03-04 05:00:00,
2013-03-04 00:05:00,28.3,22.3,29.89,WNW,290,3.0,4.0,78,0.00,,OVC048,0.00,VWS V14.01,2013-03-04 05:05:00,
2013-03-04 00:10:00,28.3,22.3,29.88,West,278,0.0,8.0,78,0.00,,OVC048,0.00,VWS V14.01,2013-03-04 05:10:00,
2013-03-04 00:15:00,28.2,22.2,29.89,NNW,328,3.0,8.0,78,0.00,,OVC048,0.00,VWS V14.01,2013-03-04 05:15:00,
2013-03-04 00:20:00,28.2,22.2,29.89,WNW,297,1.0,8.0,78,0.00,,OVC048,0.00,VWS V14.01,2013-03-04 05:20:00,
2013-03-04 00:25:00,28.2,22.2,29.89,NE,34,3.0,8.0,78,0.00,,OVC048,0.00,VWS V14.01,2013-03-04 05:25:00,
2013-03-04 00:30:00,28.1,22.1,29.89,NE,36,0.0,8.0,78,0.00,,OVC048,0.00,VWS V14.01,2013-03-04 05:30:00,
2013-03-04 00:35:00,28.1,22.1,29.89,WNW,291,3.0,8.0,78,0.00,,OVC048,0.00,VWS V14.01,2013-03-04 05:35:00,
2013-03-04 00:40:00,28.2,21.9,29.89,WNW,283,2.0,8.0,77,0.00,,OVC048,0.00,VWS V14.01,2013-03-04 05:40:00,
2013-03-04 00:45:00,28.3,21.1,29.89,NW,305,2.0,9.0,74,0.00,,OVC048,0.00,VWS V14.01,2013-03-04 05:45:00,
2013-03-04 00:50:00,28.4,20.5,29.89,WNW,290,4.0,9.0,72,0.00,,OVC048,0.00,VWS V14.01,2013-03-04 05:50:00,
2013-03-04 00:55:00,28.5,20.0,29.89,NW,308,8.0,13.0,70,0.00,,OVC048,0.00,VWS V14.01,2013-03-04 05:55:00,
2013-03-04 01:00:00,28.5,19.6,29.89,WNW,293,7.0,15.0,69,0.00,,OVC048,0.00,VWS V14.01,2013-03-04 06:00:00,
2013-03-04 01:05:00,28.5,19.6,29.89,WNW,294,7.0,11.0,69,0.00,,OVC048,0.00,VWS V14.01,2013-03-04 06:05:00,
2013-03-04 01:10:00,28.5,19.6,29.89,WNW,283,10.0,11.0,69,0.00,,OVC048,0.00,VWS V14.01,2013-03-04 06:10:00,
2013-03-04 01:15:00,28.5,19.6,29.89,WNW,293,6.0,16.0,69,0.00,,OVC048,0.00,VWS V14.01,2013-03-04 06:15:00,
2013-03-04 01:20:00,28.5,19.6,29.89,WNW,285,7.0,16.0,69,0.00,,OVC048,0.00,VWS V14.01,2013-03-04 06:20:00,
2013-03-04 01:25:00,28.5,19.6,29.89,West,269,3.0,16.0,69,0.00,,OVC048,0.00,VWS V14.01,2013-03-04 06:25:00,
2013-03-04 01:30:00,28.4,19.5,29.90,NW,315,4.0,16.0,69,0.00,,OVC048,0.00,VWS V14.01,2013-03-04 06:30:00,
2013-03-04 01:35:00,28.4,19.5,29.90,WNW,295,5.0,9.0,69,0.00,,OVC048,0.00,VWS V14.01,2013-03-04 06:35:00,
2013-03-04 01:40:00,28.4,19.5,29.90,West,266,5.0,11.0,69,0.00,,OVC048,0.00,VWS V14.01,2013-03-04 06:40:00,
2013-03-04 01:45:00,28.3,19.5,29.90,NE,36,3.0,13.0,69,0.00,,OVC048,0.00,VWS V14.01,2013-03-04 06:45:00,
2013-03-04 01:50:00,28.3,19.5,29.89,West,281,4.0,13.0,69,0.00,,OVC048,0.00,VWS V14.01,2013-03-04 06:50:00,
2013-03-04 01:55:00,28.3,19.5,29.89,WNW,290,5.0,13.0,69,0.00,,OVC048,0.00,VWS V14.01,2013-03-04 06:55:00,
2013-03-04 02:00:00,28.3,19.8,29.90,WNW,290,3.0,13.0,70,0.00,,,0.00,VWS V14.01,2013-03-04 07:00:00,
2013-03-04 02:05:00,28.2,19.4,29.89,WNW,300,4.0,9.0,69,0.00,,,0.00,VWS V14.01,2013-03-04 07:05:00,
2013-03-04 02:10:00,28.2,19.4,29.90,West,266,2.0,9.0,69,0.00,,,0.00,VWS V14.01,2013-03-04 07:10:00,
2013-03-04 02:15:00,28.2,19.7,29.89,WNW,285,4.0,9.0,70,0.00,,,0.00,VWS V14.01,2013-03-04 07:15:00,
2013-03-04 02:20:00,28.2,19.7,29.89,WNW,283,5.0,11.0,70,0.00,,,0.00,VWS V14.01,2013-03-04 07:20:00,
2013-03-04 02:25:00,28.1,19.6,29.89,WNW,291,9.0,11.0,70,0.00,,,0.00,VWS V14.01,2013-03-04 07:25:00,
2013-03-04 02:30:00,28.1,19.6,29.89,West,271,2.0,11.0,70,0.00,,,0.00,VWS V14.01,2013-03-04 07:30:00,
2013-03-04 02:35:00,28.1,19.6,29.89,WNW,297,5.0,10.0,70,0.00,,,0.00,VWS V14.01,2013-03-04 07:35:00,
2013-03-04 02:40:00,28.0,19.8,29.89,WNW,284,6.0,13.0,71,0.00,,,0.00,VWS V14.01,2013-03-04 07:40:00,
2013-03-04 02:45:00,27.9,19.7,29.90,WNW,293,4.0,13.0,71,0.00,,,0.00,VWS V14.01,2013-03-04 07:45:00,
2013-03-04 02:50:00,27.9,19.7,29.90,NNW,340,4.0,13.0,71,0.00,,,0.00,VWS V14.01,2013-03-04 07:50:00,
2013-03-04 02:55:00,27.9,19.7,29.89,WNW,288,7.0,13.0,71,0.00,,,0.00,VWS V14.01,2013-03-04 07:55:00,
2013-03-04 03:00:00,27.8,19.6,29.90,WNW,291,3.0,13.0,71,0.00,,OVC036,0.00,VWS V14.01,2013-03-04 08:00:00,
2013-03-04 03:05:00,27.8,19.3,29.90,West,278,1.0,10.0,70,0.00,,OVC036,0.00,VWS V14.01,2013-03-04 08:05:00,
2013-03-04 03:10:00,27.8,19.3,29.90,WNW,300,9.0,14.0,70,0.00,,OVC036,0.00,VWS V14.01,2013-03-04 08:10:00,
2013-03-04 03:15:00,27.8,18.6,29.90,WNW,301,4.0,14.0,68,0.00,,OVC036,0.00,VWS V14.01,2013-03-04 08:15:00,
2013-03-04 03:20:00,27.8,18.3,29.90,North,359,5.0,14.0,67,0.00,,OVC036,0.00,VWS V14.01,2013-03-04 08:20:00,
2013-03-04 03:25:00,27.7,17.8,29.90,WNW,295,5.0,14.0,66,0.00,,OVC036,0.00,VWS V14.01,2013-03-04 08:25:00,
2013-03-04 03:30:00,27.7,17.8,29.90,NW,324,7.0,14.0,66,0.00,,OVC036,0.00,VWS V14.01,2013-03-04 08:30:00,
2013-03-04 03:35:00,27.6,17.4,29.91,WNW,291,3.0,16.0,65,0.00,,OVC036,0.00,VWS V14.01,2013-03-04 08:35:00,
2013-03-04 03:40:00,27.4,16.8,29.91,East,89,2.0,16.0,64,0.00,,OVC036,0.00,VWS V14.01,2013-03-04 08:40:00,
2013-03-04 03:45:00,27.3,16.4,29.91,North,354,2.0,16.0,63,0.00,,OVC036,0.00,VWS V14.01,2013-03-04 08:45:00,
2013-03-04 03:50:00,27.2,15.9,29.91,NNE,22,11.0,17.0,62,0.00,,OVC036,0.00,VWS V14.01,2013-03-04 08:50:00,
2013-03-04 03:55:00,27.0,15.7,29.92,NE,36,4.0,17.0,62,0.00,,OVC036,0.00,VWS V14.01,2013-03-04 08:55:00,
2013-03-04 04:00:00,26.9,15.3,29.92,West,280,3.0,17.0,61,0.00,,OVC036,0.00,VWS V14.01,2013-03-04 09:00:00,
2013-03-04 04:05:00,26.8,15.5,29.92,West,280,4.0,11.0,62,0.00,,OVC034,0.00,VWS V14.01,2013-03-04 09:05:00,
2013-03-04 04:10:00,26.8,15.9,29.92,West,265,3.0,12.0,63,0.00,,OVC034,0.00,VWS V14.01,2013-03-04 09:10:00,
2013-03-04 04:15:00,26.7,15.8,29.92,WNW,302,4.0,12.0,63,0.00,,OVC034,0.00,VWS V14.01,2013-03-04 09:15:00,
2013-03-04 04:20:00,26.6,16.1,29.92,West,266,6.0,12.0,64,0.00,,OVC034,0.00,VWS V14.01,2013-03-04 09:20:00,
2013-03-04 04:25:00,26.5,16.0,29.92,NW,311,3.0,12.0,64,0.00,,OVC034,0.00,VWS V14.01,2013-03-04 09:25:00,
2013-03-04 04:30:00,26.5,16.0,29.93,WNW,288,3.0,12.0,64,0.00,,OVC034,0.00,VWS V14.01,2013-03-04 09:30:00,
2013-03-04 04:35:00,26.5,16.0,29.93,NNW,342,0.0,17.0,64,0.00,,OVC034,0.00,VWS V14.01,2013-03-04 09:35:00,
2013-03-04 04:40:00,26.5,16.0,29.93,NNW,328,6.0,17.0,64,0.00,,OVC034,0.00,VWS V14.01,2013-03-04 09:40:00,
2013-03-04 04:45:00,26.4,15.9,29.93,NW,314,6.0,17.0,64,0.00,,OVC034,0.00,VWS V14.01,2013-03-04 09:45:00,
2013-03-04 04:50:00,26.4,15.9,29.93,North,352,6.0,17.0,64,0.00,,OVC034,0.00,VWS V14.01,2013-03-04 09:50:00,
2013-03-04 04:55:00,26.4,15.9,29.93,WNW,287,4.0,17.0,64,0.00,,OVC034,0.00,VWS V14.01,2013-03-04 09:55:00,
2013-03-04 05:00:00,26.3,15.8,29.93,WNW,283,3.0,17.0,64,0.00,,OVC036,0.00,VWS V14.01,2013-03-04 10:00:00,
2013-03-04 05:05:00,26.3,15.8,29.94,NW,307,11.0,11.0,64,0.00,,OVC036,0.00,VWS V14.01,2013-03-04 10:05:00,
2013-03-04 05:10:00,26.3,15.8,29.94,West,280,8.0,18.0,64,0.00,,OVC036,0.00,VWS V14.01,2013-03-04 10:10:00,
2013-03-04 05:15:00,26.3,15.8,29.94,WNW,294,1.0,18.0,64,0.00,,OVC036,0.00,VWS V14.01,2013-03-04 10:15:00,
2013-03-04 05:20:00,26.3,15.8,29.94,WNW,284,6.0,18.0,64,0.00,,OVC036,0.00,VWS V14.01,2013-03-04 10:20:00,
2013-03-04 05:25:00,26.2,15.7,29.94,NW,319,7.0,18.0,64,0.00,,OVC036,0.00,VWS V14.01,2013-03-04 10:25:00,
2013-03-04 05:30:00,26.2,15.7,29.94,NW,314,11.0,18.0,64,0.00,,OVC036,0.00,VWS V14.01,2013-03-04 10:30:00,
2013-03-04 05:35:00,26.3,16.1,29.95,WNW,287,4.0,9.0,65,0.00,,OVC036,0.00,VWS V14.01,2013-03-04 10:35:00,
2013-03-04 05:40:00,26.3,16.1,29.95,NW,305,4.0,9.0,65,0.00,,OVC036,0.00,VWS V14.01,2013-03-04 10:40:00,
2013-03-04 05:45:00,26.2,16.1,29.95,WSW,258,1.0,12.0,65,0.00,,OVC036,0.00,VWS V14.01,2013-03-04 10:45:00,
2013-03-04 05:50:00,26.2,16.1,29.95,NW,322,9.0,12.0,65,0.00,,OVC036,0.00,VWS V14.01,2013-03-04 10:50:00,
2013-03-04 05:55:00,26.2,16.1,29.95,WNW,290,7.0,12.0,65,0.00,,OVC036,0.00,VWS V14.01,2013-03-04 10:55:00,
2013-03-04 06:00:00,26.2,16.1,29.95,WNW,289,6.0,15.0,65,0.00,,OVC036,0.00,VWS V14.01,2013-03-04 11:00:00,
2013-03-04 06:05:00,26.2,16.1,29.95,WNW,301,5.0,12.0,65,0.00,,OVC036,0.00,VWS V14.01,2013-03-04 11:05:00,
2013-03-04 06:10:00,26.1,16.0,29.95,NW,308,7.0,12.0,65,0.00,,OVC036,0.00,VWS V14.01,2013-03-04 11:10:00,
2013-03-04 06:15:00,26.1,16.0,29.95,WNW,286,7.0,12.0,65,0.00,,OVC036,0.00,VWS V14.01,2013-03-04 11:15:00,
2013-03-04 06:20:00,26.1,16.0,29.96,North,356,8.0,12.0,65,0.00,,OVC036,0.00,VWS V14.01,2013-03-04 11:20:00,
2013-03-04 06:25:00,26.1,16.0,29.96,NW,311,3.0,12.0,65,0.00,,OVC036,0.00,VWS V14.01,2013-03-04 11:25:00,
2013-03-04 06:30:00,26.1,16.0,29.96,NW,304,6.0,12.0,65,0.00,,OVC036,0.00,VWS V14.01,2013-03-04 11:30:00,
2013-03-04 06:35:00,26.1,16.0,29.96,WNW,288,4.0,9.0,65,0.00,,OVC036,0.00,VWS V14.01,2013-03-04 11:35:00,
2013-03-04 06:40:00,26.1,16.0,29.96,WNW,294,2.0,9.0,65,0.00,,OVC036,0.00,VWS V14.01,2013-03-04 11:40:00,
2013-03-04 06:45:00,26.1,16.0,29.96,WNW,295,5.0,9.0,65,0.00,,OVC036,0.00,VWS V14.01,2013-03-04 11:45:00,
2013-03-04 06:50:00,26.1,16.0,29.96,West,280,3.0,13.0,65,0.00,,OVC036,0.00,VWS V14.01,2013-03-04 11:50:00,
2013-03-04 06:55:00,26.1,16.0,29.96,NW,304,4.0,13.0,65,0.00,,OVC036,0.00,VWS V14.01,2013-03-04 11:55:00,
2013-03-04 07:00:00,26.1,16.3,29.96,WNW,302,10.0,13.0,66,0.00,,OVC036,0.00,VWS V14.01,2013-03-04 12:00:00,
2013-03-04 07:05:00,26.1,16.3,29.96,NW,304,4.0,10.0,66,0.00,,OVC036,0.00,VWS V14.01,2013-03-04 12:05:00,
2013-03-04 07:10:00,26.1,16.3,29.96,NW,324,5.0,10.0,66,0.00,,OVC036,0.00,VWS V14.01,2013-03-04 12:10:00,
2013-03-04 07:15:00,26.1,16.3,29.96,WNW,290,8.0,10.0,66,0.00,,OVC036,0.00,VWS V14.01,2013-03-04 12:15:00,
2013-03-04 07:20:00,26.2,16.4,29.97,NNE,12,4.0,10.0,66,0.00,,OVC036,0.00,VWS V14.01,2013-03-04 12:20:00,
2013-03-04 07:25:00,26.2,16.4,29.97,WNW,284,5.0,10.0,66,0.00,,OVC036,0.00,VWS V14.01,2013-03-04 12:25:00,
2013-03-04 07:30:00,26.2,16.4,29.96,West,280,4.0,10.0,66,0.00,,OVC036,0.00,VWS V14.01,2013-03-04 12:30:00,
2013-03-04 07:35:00,26.2,16.4,29.97,WNW,300,10.0,15.0,66,0.00,,OVC036,0.00,VWS V14.01,2013-03-04 12:35:00,
2013-03-04 07:40:00,26.3,16.5,29.97,WNW,285,7.0,15.0,66,0.00,,OVC036,0.00,VWS V14.01,2013-03-04 12:40:00,
2013-03-04 07:45:00,26.3,16.1,29.97,WNW,295,5.0,16.0,65,0.00,,OVC036,0.00,VWS V14.01,2013-03-04 12:45:00,
2013-03-04 07:50:00,26.3,16.5,29.97,West,280,3.0,16.0,66,0.00,,OVC036,0.00,VWS V14.01,2013-03-04 12:50:00,
2013-03-04 07:55:00,26.5,16.3,29.97,NE,45,1.0,16.0,65,0.00,,OVC036,0.00,VWS V14.01,2013-03-04 12:55:00,
2013-03-04 08:00:00,26.7,16.5,29.98,WNW,293,10.0,16.0,65,0.00,,OVC036,0.00,VWS V14.01,2013-03-04 13:00:00,
2013-03-04 08:05:00,26.7,16.5,29.98,East,86,2.0,13.0,65,0.00,,OVC038,0.00,VWS V14.01,2013-03-04 13:05:00,
2013-03-04 08:10:00,26.9,16.7,29.98,NW,312,7.0,13.0,65,0.00,,OVC038,0.00,VWS V14.01,2013-03-04 13:10:00,
2013-03-04 08:15:00,26.9,16.4,29.98,WNW,298,2.0,14.0,64,0.00,,OVC038,0.00,VWS V14.01,2013-03-04 13:15:00,
2013-03-04 08:20:00,27.1,16.6,29.98,West,274,11.0,14.0,64,0.00,,OVC038,0.00,VWS V14.01,2013-03-04 13:20:00,
2013-03-04 08:25:00,27.1,16.6,29.98,NNE,32,4.0,14.0,64,0.00,,OVC038,0.00,VWS V14.01,2013-03-04 13:25:00,
2013-03-04 08:29:00,27.3,16.8,29.98,West,273,8.0,14.0,64,0.00,,OVC038,0.00,VWS V14.01,2013-03-04 13:29:00,
2013-03-04 08:34:00,27.3,16.0,29.98,NNW,344,7.0,19.0,62,0.00,,OVC038,0.00,VWS V14.01,2013-03-04 13:34:00,
2013-03-04 08:39:00,27.4,16.5,29.98,WNW,290,5.0,19.0,63,0.00,,OVC038,0.00,VWS V14.01,2013-03-04 13:39:00,
2013-03-04 08:44:00,27.5,16.6,29.98,WNW,293,9.0,19.0,63,0.00,,OVC038,0.00,VWS V14.01,2013-03-04 13:44:00,
2013-03-04 08:49:00,27.4,16.1,29.98,West,281,2.0,19.0,62,0.00,,OVC038,0.00,VWS V14.01,2013-03-04 13:49:00,
2013-03-04 08:54:00,27.8,16.5,29.98,WNW,288,6.0,19.0,62,0.00,,OVC038,0.00,VWS V14.01,2013-03-04 13:54:00,
2013-03-04 08:59:00,27.8,16.1,29.98,WNW,290,9.0,19.0,61,0.00,,OVC038,0.00,VWS V14.01,2013-03-04 13:59:00,
2013-03-04 09:04:00,28.0,16.7,29.98,NNW,338,12.0,15.0,62,0.00,,OVC040,0.00,VWS V14.01,2013-03-04 14:04:00,
2013-03-04 09:09:00,27.9,16.2,29.98,WNW,295,7.0,17.0,61,0.00,,OVC040,0.00,VWS V14.01,2013-03-04 14:09:00,
2013-03-04 09:14:00,28.1,16.4,29.98,WNW,296,4.0,17.0,61,0.00,,OVC040,0.00,VWS V14.01,2013-03-04 14:14:00,
2013-03-04 09:19:00,28.5,16.8,29.98,WNW,287,3.0,17.0,61,0.00,,OVC040,0.00,VWS V14.01,2013-03-04 14:19:00,
2013-03-04 09:24:00,28.7,17.0,29.98,NNW,346,2.0,17.0,61,0.00,,OVC040,0.00,VWS V14.01,2013-03-04 14:24:00,
2013-03-04 09:29:00,28.8,16.7,29.98,WNW,287,6.0,17.0,60,0.00,,OVC040,0.00,VWS V14.01,2013-03-04 14:29:00,
2013-03-04 09:34:00,28.9,16.8,29.98,West,280,4.0,14.0,60,0.00,,OVC040,0.00,VWS V14.01,2013-03-04 14:34:00,
2013-03-04 09:39:00,29.1,17.0,29.98,WNW,297,10.0,14.0,60,0.00,,OVC040,0.00,VWS V14.01,2013-03-04 14:39:00,
2013-03-04 09:44:00,29.4,17.2,29.98,WNW,287,7.0,14.0,60,0.00,,OVC040,0.00,VWS V14.01,2013-03-04 14:44:00,
2013-03-04 09:49:00,29.4,17.2,29.98,WNW,285,15.0,15.0,60,0.00,,OVC040,0.00,VWS V14.01,2013-03-04 14:49:00,
2013-03-04 09:54:00,29.3,17.1,29.98,NW,305,14.0,16.0,60,0.00,,OVC040,0.00,VWS V14.01,2013-03-04 14:54:00,
2013-03-04 09:59:00,29.6,17.4,29.98,WNW,290,4.0,16.0,60,0.00,,OVC040,0.00,VWS V14.01,2013-03-04 14:59:00,
2013-03-04 10:04:00,30.1,17.9,29.98,WSW,258,3.0,8.0,60,0.00,,OVC038,0.00,VWS V14.01,2013-03-04 15:04:00,
2013-03-04 10:09:00,30.2,17.6,29.98,NW,311,10.0,19.0,59,0.00,,OVC038,0.00,VWS V14.01,2013-03-04 15:09:00,
2013-03-04 10:14:00,30.1,17.5,29.98,West,274,12.0,19.0,59,0.00,,OVC038,0.00,VWS V14.01,2013-03-04 15:14:00,
2013-03-04 10:19:00,29.9,17.3,29.98,WNW,302,10.0,19.0,59,0.00,,OVC038,0.00,VWS V14.01,2013-03-04 15:19:00,
2013-03-04 10:24:00,30.0,17.4,29.98,NW,311,12.0,19.0,59,0.00,,OVC038,0.00,VWS V14.01,2013-03-04 15:24:00,
2013-03-04 10:29:00,30.4,18.2,29.98,WNW,301,13.0,21.0,60,0.00,,OVC038,0.00,VWS V14.01,2013-03-04 15:29:00,
2013-03-04 10:34:00,30.3,17.7,29.98,WNW,295,5.0,16.0,59,0.00,,OVC038,0.00,VWS V14.01,2013-03-04 15:34:00,
2013-03-04 10:39:00,30.4,17.8,29.98,WNW,298,10.0,16.0,59,0.00,,OVC038,0.00,VWS V14.01,2013-03-04 15:39:00,
2013-03-04 10:44:00,30.3,17.7,29.97,WNW,291,7.0,18.0,59,0.00,,OVC038,0.00,VWS V14.01,2013-03-04 15:44:00,
2013-03-04 10:49:00,30.6,18.0,29.97,WNW,297,11.0,18.0,59,0.00,,OVC038,0.00,VWS V14.01,2013-03-04 15:49:00,
2013-03-04 10:54:00,30.8,17.8,29.98,WNW,287,12.0,18.0,58,0.00,,OVC038,0.00,VWS V14.01,2013-03-04 15:54:00,
2013-03-04 10:59:00,30.8,18.2,29.97,NW,311,10.0,18.0,59,0.00,,OVC038,0.00,VWS V14.01,2013-03-04 15:59:00,
2013-03-04 11:04:00,30.9,18.3,29.97,WNW,303,7.0,16.0,59,0.00,,BKN038,0.00,VWS V14.01,2013-03-04 16:04:00,
2013-03-04 11:09:00,30.9,17.9,29.97,WNW,286,7.0,23.0,58,0.00,,BKN038,0.00,VWS V14.01,2013-03-04 16:09:00,
2013-03-04 11:14:00,31.1,18.5,29.98,WNW,290,5.0,23.0,59,0.00,,BKN038,0.00,VWS V14.01,2013-03-04 16:14:00,
2013-03-04 11:19:00,31.3,18.2,29.97,WNW,294,11.0,23.0,58,0.00,,BKN038,0.00,VWS V14.01,2013-03-04 16:19:00,
2013-03-04 11:24:00,31.3,18.6,29.98,WNW,284,10.0,23.0,59,0.00,,BKN038,0.00,VWS V14.01,2013-03-04 16:24:00,
2013-03-04 11:29:00,31.4,18.7,29.97,WNW,294,5.0,23.0,59,0.00,,BKN038,0.00,VWS V14.01,2013-03-04 16:29:00,
2013-03-04 11:34:00,31.6,18.9,29.98,North,1,5.0,12.0,59,0.00,,BKN038,0.00,VWS V14.01,2013-03-04 16:34:00,
2013-03-04 11:39:00,31.5,18.8,29.98,NE,34,7.0,14.0,59,0.00,,BKN038,0.00,VWS V14.01,2013-03-04 16:39:00,
2013-03-04 11:44:00,31.6,19.3,29.98,East,90,8.0,19.0,60,0.00,,BKN038,0.00,VWS V14.01,2013-03-04 16:44:00,
2013-03-04 11:49:00,31.7,19.4,29.97,West,277,9.0,19.0,60,0.00,,BKN038,0.00,VWS V14.01,2013-03-04 16:49:00,
2013-03-04 11:54:00,31.8,19.9,29.97,WNW,295,6.0,19.0,61,0.00,,BKN038,0.00,VWS V14.01,2013-03-04 16:54:00,
2013-03-04 11:59:00,32.0,19.7,29.97,WNW,300,6.0,19.0,60,0.00,,BKN038,0.00,VWS V14.01,2013-03-04 16:59:00,
2013-03-04 12:04:00,32.3,20.0,29.97,West,281,9.0,11.0,60,0.00,,OVC040,0.00,VWS V14.01,2013-03-04 17:04:00,
2013-03-04 12:09:00,32.3,19.2,29.98,WNW,293,13.0,21.0,58,0.00,,OVC040,0.00,VWS V14.01,2013-03-04 17:09:00,
2013-03-04 12:14:00,32.3,19.2,29.97,NE,39,4.0,21.0,58,0.00,,OVC040,0.00,VWS V14.01,2013-03-04 17:14:00,
2013-03-04 12:19:00,32.5,19.8,29.97,North,359,1.0,21.0,59,0.00,,OVC040,0.00,VWS V14.01,2013-03-04 17:19:00,
2013-03-04 12:24:00,33.0,19.9,29.97,WNW,283,9.0,21.0,58,0.00,,OVC040,0.00,VWS V14.01,2013-03-04 17:24:00,
2013-03-04 12:29:00,32.9,19.8,29.97,West,259,7.0,21.0,58,0.00,,OVC040,0.00,VWS V14.01,2013-03-04 17:29:00,
2013-03-04 12:34:00,33.1,20.4,29.97,NW,304,11.0,15.0,59,0.00,,OVC040,0.00,VWS V14.01,2013-03-04 17:34:00,
2013-03-04 12:39:00,33.1,19.9,29.97,NW,312,17.0,20.0,58,0.00,,OVC040,0.00,VWS V14.01,2013-03-04 17:39:00,
2013-03-04 12:44:00,33.1,20.4,29.96,WNW,285,10.0,20.0,59,0.00,,OVC040,0.00,VWS V14.01,2013-03-04 17:44:00,
2013-03-04 12:49:00,33.2,20.4,29.96,NW,312,8.0,20.0,59,0.00,,OVC040,0.00,VWS V14.01,2013-03-04 17:49:00,
2013-03-04 12:54:00,33.8,21.8,29.96,West,267,13.0,20.0,61,0.00,,OVC040,0.00,VWS V14.01,2013-03-04 17:54:00,
2013-03-04 12:59:00,34.2,21.4,29.96,WNW,290,11.0,20.0,59,0.00,,OVC040,0.00,VWS V14.01,2013-03-04 17:59:00,
2013-03-04 13:04:00,34.1,21.3,29.96,NW,309,16.0,20.0,59,0.00,,OVC042,0.00,VWS V14.01,2013-03-04 18:04:00,
2013-03-04 13:09:00,34.0,21.2,29.95,NW,315,3.0,20.0,59,0.00,,OVC042,0.00,VWS V14.01,2013-03-04 18:09:00,
2013-03-04 13:14:00,34.3,21.1,29.96,NW,314,9.0,20.0,58,0.00,,OVC042,0.00,VWS V14.01,2013-03-04 18:14:00,
2013-03-04 13:19:00,34.3,21.1,29.95,NW,308,6.0,20.0,58,0.00,,OVC042,0.00,VWS V14.01,2013-03-04 18:19:00,
2013-03-04 13:24:00,34.0,21.6,29.95,SW,232,8.0,20.0,60,0.00,,OVC042,0.00,VWS V14.01,2013-03-04 18:24:00,
2013-03-04 13:29:00,34.1,21.7,29.95,West,271,4.0,20.0,60,0.00,,OVC042,0.00,VWS V14.01,2013-03-04 18:29:00,
2013-03-04 13:30:00,34.2,21.4,29.95,NNW,338,6.0,11.0,59,0.00,,OVC042,0.00,VWS V14.01,2013-03-04 18:30:00,
2013-03-04 13:35:00,34.1,21.7,29.95,NW,325,12.0,19.0,60,0.00,,OVC042,0.00,VWS V14.01,2013-03-04 18:35:00,
2013-03-04 13:40:00,34.1,21.7,29.95,WNW,293,14.0,20.0,60,0.00,,OVC042,0.00,VWS V14.01,2013-03-04 18:40:00,
2013-03-04 13:45:00,33.9,21.5,29.95,WNW,293,9.0,20.0,60,0.00,,OVC042,0.00,VWS V14.01,2013-03-04 18:45:00,
2013-03-04 13:50:00,33.9,21.5,29.95,WNW,287,9.0,22.0,60,0.00,,OVC042,0.00,VWS V14.01,2013-03-04 18:50:00,
2013-03-04 13:55:00,34.0,21.6,29.95,WNW,290,5.0,22.0,60,0.00,,OVC042,0.00,VWS V14.01,2013-03-04 18:55:00,
2013-03-04 14:00:00,34.2,21.8,29.95,WNW,298,11.0,11.0,60,0.00,,OVC040,0.00,VWS V14.01,2013-03-04 19:00:00,
2013-03-04 14:05:00,34.2,21.8,29.95,NNW,338,7.0,18.0,60,0.00,,OVC040,0.00,VWS V14.01,2013-03-04 19:05:00,
2013-03-04 14:10:00,34.2,21.4,29.95,NW,304,7.0,18.0,59,0.00,,OVC040,0.00,VWS V14.01,2013-03-04 19:10:00,
2013-03-04 14:15:00,34.4,21.6,29.95,West,270,9.0,18.0,59,0.00,,OVC040,0.00,VWS V14.01,2013-03-04 19:15:00,
2013-03-04 14:20:00,34.4,21.6,29.95,WNW,297,3.0,18.0,59,0.00,,OVC040,0.00,VWS V14.01,2013-03-04 19:20:00,
2013-03-04 14:25:00,34.7,21.9,29.95,WSW,248,4.0,18.0,59,0.00,,OVC040,0.00,VWS V14.01,2013-03-04 19:25:00,
2013-03-04 14:30:00,34.8,22.0,29.94,WNW,283,9.0,15.0,59,0.00,,OVC040,0.00,VWS V14.01,2013-03-04 19:30:00,
2013-03-04 14:35:00,34.9,22.0,29.94,NW,305,11.0,15.0,59,0.00,,OVC040,0.00,VWS V14.01,2013-03-04 19:35:00,
2013-03-04 14:40:00,34.9,22.0,29.94,NW,312,10.0,19.0,59,0.00,,OVC040,0.00,VWS V14.01,2013-03-04 19:40:00,
2013-03-04 14:45:00,35.3,22.0,29.95,WNW,284,11.0,19.0,58,0.00,,OVC040,0.00,VWS V14.01,2013-03-04 19:45:00,
2013-03-04 14:50:00,35.2,21.9,29.94,WNW,283,7.0,19.0,58,0.00,,OVC040,0.00,VWS V14.01,2013-03-04 19:50:00,
2013-03-04 14:55:00,35.3,22.0,29.94,WNW,288,5.0,19.0,58,0.00,,OVC040,0.00,VWS V14.01,2013-03-04 19:55:00,
2013-03-04 15:00:00,35.3,22.0,29.94,West,278,4.0,6.0,58,0.00,,OVC038,0.00,VWS V14.01,2013-03-04 20:00:00,
2013-03-04 15:05:00,35.3,22.0,29.94,West,259,4.0,18.0,58,0.00,,OVC038,0.00,VWS V14.01,2013-03-04 20:05:00,
2013-03-04 15:10:00,35.4,22.1,29.94,NW,305,15.0,18.0,58,0.00,,OVC038,0.00,VWS V14.01,2013-03-04 20:10:00,
2013-03-04 15:15:00,35.5,22.6,29.94,NW,305,5.0,18.0,59,0.00,,OVC038,0.00,VWS V14.01,2013-03-04 20:15:00,
2013-03-04 15:20:00,35.6,22.3,29.94,WNW,296,7.0,18.0,58,0.00,,OVC038,0.00,VWS V14.01,2013-03-04 20:20:00,
2013-03-04 15:25:00,35.7,22.4,29.94,West,266,17.0,18.0,58,0.00,,OVC038,0.00,VWS V14.01,2013-03-04 20:25:00,
2013-03-04 15:30:00,35.4,22.1,29.94,WNW,301,7.0,7.0,58,0.00,,OVC038,0.00,VWS V14.01,2013-03-04 20:30:00,
2013-03-04 15:35:00,35.6,22.3,29.94,WNW,290,6.0,18.0,58,0.00,,OVC038,0.00,VWS V14.01,2013-03-04 20:35:00,
2013-03-04 15:40:00,36.0,23.1,29.94,East,94,6.0,18.0,59,0.00,,OVC038,0.00,VWS V14.01,2013-03-04 20:40:00,
2013-03-04 15:45:00,36.0,22.3,29.94,North,11,7.0,18.0,57,0.00,,OVC038,0.00,VWS V14.01,2013-03-04 20:45:00,
2013-03-04 15:50:00,36.0,22.3,29.94,NW,304,16.0,21.0,57,0.00,,OVC038,0.00,VWS V14.01,2013-03-04 20:50:00,
2013-03-04 15:55:00,35.7,22.4,29.94,West,270,12.0,21.0,58,0.00,,OVC038,0.00,VWS V14.01,2013-03-04 20:55:00,
2013-03-04 16:00:00,35.4,22.5,29.94,NW,315,5.0,9.0,59,0.00,,BKN042,0.00,VWS V14.01,2013-03-04 21:00:00,
2013-03-04 16:05:00,35.3,22.4,29.94,WNW,283,9.0,16.0,59,0.00,,BKN042,0.00,VWS V14.01,2013-03-04 21:05:00,
2013-03-04 16:10:00,35.2,22.3,29.95,West,276,8.0,17.0,59,0.00,,BKN042,0.00,VWS V14.01,2013-03-04 21:10:00,
2013-03-04 16:15:00,35.3,22.8,29.95,West,275,7.0,17.0,60,0.00,,BKN042,0.00,VWS V14.01,2013-03-04 21:15:00,
2013-03-04 16:20:00,35.3,22.4,29.95,NW,311,10.0,17.0,59,0.00,,BKN042,0.00,VWS V14.01,2013-03-04 21:20:00,
2013-03-04 16:25:00,35.2,22.7,29.95,NW,314,14.0,18.0,60,0.00,,BKN042,0.00,VWS V14.01,2013-03-04 21:25:00,
2013-03-04 16:30:00,35.3,22.8,29.95,WNW,293,5.0,5.0,60,0.00,,BKN042,0.00,VWS V14.01,2013-03-04 21:30:00,
2013-03-04 16:35:00,35.3,22.8,29.95,WNW,295,3.0,13.0,60,0.00,,BKN042,0.00,VWS V14.01,2013-03-04 21:35:00,
2013-03-04 16:40:00,35.2,23.1,29.96,NW,308,3.0,13.0,61,0.00,,BKN042,0.00,VWS V14.01,2013-03-04 21:40:00,
2013-03-04 16:45:00,35.2,23.1,29.96,NNE,23,3.0,13.0,61,0.00,,BKN042,0.00,VWS V14.01,2013-03-04 21:45:00,
2013-03-04 16:50:00,34.9,22.4,29.96,NW,305,4.0,13.0,60,0.00,,BKN042,0.00,VWS V14.01,2013-03-04 21:50:00,
2013-03-04 16:55:00,34.8,22.7,29.96,North,6,1.0,13.0,61,0.00,,BKN042,0.00,VWS V14.01,2013-03-04 21:55:00,
2013-03-04 17:00:00,34.8,23.1,29.96,NW,312,9.0,9.0,62,0.00,,OVC040,0.00,VWS V14.01,2013-03-04 22:00:00,
2013-03-04 17:05:00,34.5,22.8,29.97,West,262,10.0,14.0,62,0.00,,OVC040,0.00,VWS V14.01,2013-03-04 22:05:00,
2013-03-04 17:10:00,34.1,23.2,29.97,WNW,300,13.0,15.0,64,0.00,,OVC040,0.00,VWS V14.01,2013-03-04 22:10:00,
2013-03-04 17:15:00,33.8,22.9,29.98,WNW,285,12.0,17.0,64,0.00,,OVC040,0.00,VWS V14.01,2013-03-04 22:15:00,
2013-03-04 17:20:00,33.6,22.7,29.98,NNE,13,4.0,18.0,64,0.00,,OVC040,0.00,VWS V14.01,2013-03-04 22:20:00,
2013-03-04 17:25:00,33.5,22.6,29.98,NNW,330,3.0,18.0,64,0.00,,OVC040,0.00,VWS V14.01,2013-03-04 22:25:00,
2013-03-04 17:30:00,33.3,22.8,29.98,WNW,296,4.0,5.0,65,0.00,,OVC040,0.00,VWS V14.01,2013-03-04 22:30:00,
2013-03-04 17:35:00,33.1,23.0,29.98,WNW,290,5.0,12.0,66,0.00,,OVC040,0.00,VWS V14.01,2013-03-04 22:35:00,
2013-03-04 17:40:00,32.9,22.8,29.98,West,281,5.0,13.0,66,0.00,,OVC040,0.00,VWS V14.01,2013-03-04 22:40:00,
2013-03-04 17:45:00,32.8,22.7,29.98,NW,312,12.0,16.0,66,0.00,,OVC040,0.00,VWS V14.01,2013-03-04 22:45:00,
2013-03-04 17:50:00,32.7,23.0,29.99,WNW,295,6.0,16.0,67,0.00,,OVC040,0.00,VWS V14.01,2013-03-04 22:50:00,
2013-03-04 17:55:00,32.6,22.9,29.99,WNW,296,3.0,16.0,67,0.00,,OVC040,0.00,VWS V14.01,2013-03-04 22:55:00,
2013-03-04 18:00:00,32.5,22.8,29.99,WNW,293,6.0,8.0,67,0.00,,OVC034,0.00,VWS V14.01,2013-03-04 23:00:00,
2013-03-04 18:05:00,32.3,22.6,29.99,WNW,285,6.0,17.0,67,0.00,,OVC034,0.00,VWS V14.01,2013-03-04 23:05:00,
2013-03-04 18:10:00,32.1,22.8,29.99,WNW,285,2.0,17.0,68,0.00,,OVC034,0.00,VWS V14.01,2013-03-04 23:10:00,
2013-03-04 18:15:00,32.0,22.6,29.99,NNE,27,2.0,17.0,68,0.00,,OVC034,0.00,VWS V14.01,2013-03-04 23:15:00,
2013-03-04 18:20:00,32.0,22.6,29.99,WNW,293,9.0,17.0,68,0.00,,OVC034,0.00,VWS V14.01,2013-03-04 23:20:00,
2013-03-04 18:25:00,31.9,22.5,29.99,NW,324,5.0,17.0,68,0.00,,OVC034,0.00,VWS V14.01,2013-03-04 23:25:00,
2013-03-04 18:30:00,31.9,22.9,29.99,West,277,5.0,5.0,69,0.00,,OVC034,0.00,VWS V14.01,2013-03-04 23:30:00,
2013-03-04 18:35:00,31.9,22.5,30.00,NW,304,6.0,10.0,68,0.00,,OVC034,0.00,VWS V14.01,2013-03-04 23:35:00,
2013-03-04 18:40:00,31.9,22.5,30.00,NW,314,4.0,10.0,68,0.00,,OVC034,0.00,VWS V14.01,2013-03-04 23:40:00,
2013-03-04 18:45:00,31.9,22.5,30.00,WNW,285,6.0,10.0,68,0.00,,OVC034,0.00,VWS V14.01,2013-03-04 23:45:00,
2013-03-04 18:50:00,31.8,22.8,30.00,ENE,60,8.0,12.0,69,0.00,,OVC034,0.00,VWS V14.01,2013-03-04 23:50:00,
2013-03-04 18:55:00,31.7,22.7,30.01,West,274,6.0,13.0,69,0.00,,OVC034,0.00,VWS V14.01,2013-03-04 23:55:00,
2013-03-04 19:00:00,31.7,22.7,30.01,WNW,293,3.0,5.0,69,0.00,,OVC032,0.00,VWS V14.01,2013-03-05 00:00:00,
2013-03-04 19:05:00,31.7,22.7,30.01,WNW,295,3.0,10.0,69,0.00,,OVC032,0.00,VWS V14.01,2013-03-05 00:05:00,
2013-03-04 19:10:00,31.7,22.7,30.01,North,352,3.0,11.0,69,0.00,,OVC032,0.00,VWS V14.01,2013-03-05 00:10:00,
2013-03-04 19:15:00,31.6,22.6,30.01,West,264,11.0,15.0,69,0.00,,OVC032,0.00,VWS V14.01,2013-03-05 00:15:00,
2013-03-04 19:20:00,31.6,22.6,30.01,NW,319,7.0,15.0,69,0.00,,OVC032,0.00,VWS V14.01,2013-03-05 00:20:00,
2013-03-04 19:25:00,31.6,22.6,30.01,West,280,6.0,15.0,69,0.00,,OVC032,0.00,VWS V14.01,2013-03-05 00:25:00,
2013-03-04 19:30:00,31.6,22.6,30.02,WSW,256,4.0,6.0,69,0.00,,OVC032,0.00,VWS V14.01,2013-03-05 00:30:00,
2013-03-04 19:35:00,31.6,22.6,30.01,NW,309,8.0,12.0,69,0.00,,OVC032,0.00,VWS V14.01,2013-03-05 00:35:00,
2013-03-04 19:40:00,31.6,22.6,30.01,SSE,149,5.0,12.0,69,0.00,,OVC032,0.00,VWS V14.01,2013-03-05 00:40:00,
2013-03-04 19:45:00,31.6,22.6,30.01,West,271,2.0,13.0,69,0.00,,OVC032,0.00,VWS V14.01,2013-03-05 00:45:00,
2013-03-04 19:50:00,31.5,22.2,30.01,WNW,290,4.0,13.0,68,0.00,,OVC032,0.00,VWS V14.01,2013-03-05 00:50:00,
2013-03-04 19:55:00,31.5,22.5,30.01,WNW,291,4.0,13.0,69,0.00,,OVC032,0.00,VWS V14.01,2013-03-05 00:55:00,
2013-03-04 20:00:00,31.4,22.4,30.02,WNW,300,5.0,6.0,69,0.00,,OVC032,0.00,VWS V14.01,2013-03-05 01:00:00,
2013-03-04 20:05:00,31.4,22.4,30.02,NW,311,5.0,10.0,69,0.00,,OVC032,0.00,VWS V14.01,2013-03-05 01:05:00,
2013-03-04 20:10:00,31.4,22.4,30.02,NW,305,5.0,11.0,69,0.00,,OVC032,0.00,VWS V14.01,2013-03-05 01:10:00,
2013-03-04 20:15:00,31.4,22.4,30.02,WNW,285,5.0,11.0,69,0.00,,OVC032,0.00,VWS V14.01,2013-03-05 01:15:00,
2013-03-04 20:20:00,31.4,22.4,30.02,WNW,295,5.0,11.0,69,0.00,,OVC032,0.00,VWS V14.01,2013-03-05 01:20:00,
2013-03-04 20:25:00,31.3,22.3,30.02,East,89,2.0,12.0,69,0.00,,OVC032,0.00,VWS V14.01,2013-03-05 01:25:00,
2013-03-04 20:30:00,31.3,22.3,30.02,WNW,293,5.0,6.0,69,0.00,,OVC032,0.00,VWS V14.01,2013-03-05 01:30:00,
2013-03-04 20:35:00,31.3,22.3,30.02,West,269,5.0,11.0,69,0.00,,OVC032,0.00,VWS V14.01,2013-03-05 01:35:00,
2013-03-04 20:40:00,31.3,22.3,30.02,WNW,298,4.0,12.0,69,0.00,,OVC032,0.00,VWS V14.01,2013-03-05 01:40:00,
2013-03-04 20:45:00,31.3,22.0,30.02,NW,308,8.0,12.0,68,0.00,,OVC032,0.00,VWS V14.01,2013-03-05 01:45:00,
2013-03-04 20:50:00,31.2,22.2,30.02,WNW,283,3.0,12.0,69,0.00,,OVC032,0.00,VWS V14.01,2013-03-05 01:50:00,
2013-03-04 20:55:00,31.2,22.2,30.02,WNW,302,4.0,12.0,69,0.00,,OVC032,0.00,VWS V14.01,2013-03-05 01:55:00,
2013-03-04 21:00:00,31.2,21.9,30.02,WNW,301,4.0,7.0,68,0.00,,OVC032,0.00,VWS V14.01,2013-03-05 02:00:00,
2013-03-04 21:05:00,31.1,21.8,30.02,NW,304,4.0,11.0,68,0.00,,OVC032,0.00,VWS V14.01,2013-03-05 02:05:00,
2013-03-04 21:10:00,31.1,21.8,30.03,WNW,285,4.0,13.0,68,0.00,,OVC032,0.00,VWS V14.01,2013-03-05 02:10:00,
2013-03-04 21:15:00,31.0,21.7,30.03,NW,309,3.0,13.0,68,0.00,,OVC032,0.00,VWS V14.01,2013-03-05 02:15:00,
2013-03-04 21:20:00,31.0,21.7,30.03,North,357,4.0,13.0,68,0.00,,OVC032,0.00,VWS V14.01,2013-03-05 02:20:00,
2013-03-04 21:25:00,31.0,21.7,30.03,West,266,2.0,13.0,68,0.00,,OVC032,0.00,VWS V14.01,2013-03-05 02:25:00,
2013-03-04 21:30:00,30.9,21.6,30.03,West,277,10.0,10.0,68,0.00,,OVC032,0.00,VWS V14.01,2013-03-05 02:30:00,
2013-03-04 21:35:00,30.9,21.6,30.03,WNW,295,5.0,10.0,68,0.00,,OVC032,0.00,VWS V14.01,2013-03-05 02:35:00,
2013-03-04 21:40:00,30.9,21.6,30.04,WNW,290,4.0,11.0,68,0.00,,OVC032,0.00,VWS V14.01,2013-03-05 02:40:00,
2013-03-04 21:45:00,30.8,21.5,30.03,NE,42,2.0,11.0,68,0.00,,OVC032,0.00,VWS V14.01,2013-03-05 02:45:00,
2013-03-04 21:50:00,30.8,21.5,30.04,NW,311,9.0,11.0,68,0.00,,OVC032,0.00,VWS V14.01,2013-03-05 02:50:00,
2013-03-04 21:55:00,30.7,21.8,30.04,WNW,298,3.0,11.0,69,0.00,,OVC032,0.00,VWS V14.01,2013-03-05 02:55:00,
2013-03-04 22:00:00,30.6,21.6,30.04,NE,37,2.0,2.0,69,0.00,,OVC030,0.00,VWS V14.01,2013-03-05 03:00:00,
2013-03-04 22:05:00,30.6,21.6,30.04,NNE,13,3.0,7.0,69,0.00,,OVC030,0.00,VWS V14.01,2013-03-05 03:05:00,
2013-03-04 22:10:00,30.5,21.6,30.04,West,281,8.0,16.0,69,0.00,,OVC030,0.00,VWS V14.01,2013-03-05 03:10:00,
2013-03-04 22:15:00,30.4,21.5,30.04,NNE,23,6.0,16.0,69,0.00,,OVC030,0.00,VWS V14.01,2013-03-05 03:15:00,
2013-03-04 22:20:00,30.4,21.8,30.04,NNE,22,3.0,16.0,70,0.00,,OVC030,0.00,VWS V14.01,2013-03-05 03:20:00,
2013-03-04 22:25:00,30.3,21.7,30.04,North,4,2.0,16.0,70,0.00,,OVC030,0.00,VWS V14.01,2013-03-05 03:25:00,
2013-03-04 22:30:00,30.3,21.7,30.04,WNW,301,1.0,16.0,70,0.00,,OVC028,0.00,VWS V14.01,2013-03-05 03:30:00,
2013-03-04 22:35:00,30.3,21.7,30.04,WNW,287,4.0,9.0,70,0.00,,OVC028,0.00,VWS V14.01,2013-03-05 03:35:00,
2013-03-04 22:40:00,30.2,21.6,30.04,WNW,290,6.0,10.0,70,0.00,,OVC028,0.00,VWS V14.01,2013-03-05 03:40:00,
2013-03-04 22:45:00,30.2,21.6,30.04,NNE,25,3.0,10.0,70,0.00,,OVC028,0.00,VWS V14.01,2013-03-05 03:45:00,
2013-03-04 22:50:00,30.2,21.9,30.05,North,360,1.0,10.0,71,0.00,,OVC028,0.00,VWS V14.01,2013-03-05 03:50:00,
2013-03-04 22:55:00,30.2,21.9,30.05,NW,325,0.0,10.0,71,0.00,,OVC028,0.00,VWS V14.01,2013-03-05 03:55:00,
2013-03-04 23:00:00,30.1,21.9,30.05,WNW,296,4.0,10.0,71,0.00,,OVC028,0.00,VWS V14.01,2013-03-05 04:00:00,
2013-03-04 23:05:00,30.1,21.9,30.05,NNE,17,2.0,13.0,71,0.00,,OVC028,0.00,VWS V14.01,2013-03-05 04:05:00,
2013-03-04 23:10:00,30.0,21.8,30.05,WNW,295,8.0,13.0,71,0.00,,OVC028,0.00,VWS V14.01,2013-03-05 04:10:00,
2013-03-04 23:15:00,30.0,21.8,30.04,NW,325,2.0,14.0,71,0.00,,OVC028,0.00,VWS V14.01,2013-03-05 04:15:00,
2013-03-04 23:20:00,29.9,21.7,30.05,WNW,290,4.0,14.0,71,0.00,,OVC028,0.00,VWS V14.01,2013-03-05 04:20:00,
2013-03-04 23:25:00,29.9,21.7,30.05,WNW,290,6.0,14.0,71,0.00,,OVC028,0.00,VWS V14.01,2013-03-05 04:25:00,
2013-03-04 23:30:00,29.8,21.9,30.05,West,277,5.0,14.0,72,0.00,,OVC028,0.00,VWS V14.01,2013-03-05 04:30:00,
2013-03-04 23:35:00,29.8,21.9,30.05,South,184,1.0,9.0,72,0.00,,OVC028,0.00,VWS V14.01,2013-03-05 04:35:00,
2013-03-04 23:40:00,29.8,21.9,30.05,NE,55,0.0,10.0,72,0.00,,OVC028,0.00,VWS V14.01,2013-03-05 04:40:00,
2013-03-04 23:45:00,29.8,21.9,30.05,West,273,5.0,10.0,72,0.00,,OVC028,0.00,VWS V14.01,2013-03-05 04:45:00,
2013-03-04 23:50:00,29.8,21.9,30.05,NW,311,3.0,14.0,72,0.00,,OVC028,0.00,VWS V14.01,2013-03-05 04:50:00,
2013-03-04 23:55:00,29.8,21.9,30.05,NW,316,2.0,14.0,72,0.00,,OVC028,0.00,VWS V14.01,2013-03-05 04:55:00,